Meteo Giornale » Osservazioni meteo Stati Uniti (USA) » Pottstown Limerick

ore: 15:54 - Osservazioni Meteo Pottstown Limerick
Lat. 40° 14' N Lon. 75° 33' W Alt. 89 metri s.l.m.

poco_nuvoloso

31 °C

Poco Nuvoloso

Temp. 24 Ore

20 °C

31 °C

Nord

9.3 Km/h

Dew point 24 °C

Umidità 66 %

Visibilità  10 Km

Il sole sorge alle ore 06:29

Il sole tramonta alle ore 19:34

Data e Ora Cielo e Fenomeni T °C DP °C Um. % Pres. hPa Vis. km Vento km/h
Oggi h: 15:54 poco_nuvoloso Poco Nuvoloso 31 24 66 1014 10 N 9.3
Oggi h: 14:54 molto_nuvoloso Molto Nuvoloso 30 23 66 1015 10 N 7.4
Oggi h: 13:54 molto_nuvoloso Molto Nuvoloso 29 23 70 1015 10 O 7.4
Oggi h: 12:54 sereno Sereno 28 24 78 1016 14 S 9.3
Oggi h: 11:54 nuvoloso Nuvoloso 26 23 83 1017 11 N 5.5
Oggi h: 10:54 nuvoloso Nuvoloso 25 23 88 1017 11 N 0
Oggi h: 09:54 foschia Foschia 24 22 88 1016 10 O/SO 7.4
Oggi h: 08:54 foschia Foschia 23 22 94 1017 8 N 5.5
Oggi h: 07:54 foschia Foschia 22 21 94 1016 6 N 5.5
Oggi h: 07:41 foschia Foschia 21 21 100 1017 3 N 0
Oggi h: 07:12 foschia Foschia 21 21 100 1017 5 N 0
Oggi h: 07:03 foschia Foschia 21 21 100 1017 2 N 0
Oggi h: 06:54 foschia Foschia 21 21 100 1017 3 N 0
Oggi h: 06:50 foschia Foschia 21 21 100 1017 2 N 0
Oggi h: 05:54 foschia Foschia 21 21 100 1017 5 N 0
Oggi h: 04:54 foschia Foschia 21 21 100 1017 6 N 0
Oggi h: 03:54 foschia Foschia 21 21 100 1017 10 N 0
Oggi h: 02:54 foschia Foschia 21 21 100 1017 8 N 0
Oggi h: 01:54 coperto Coperto 21 21 100 1018 13 N 0
Oggi h: 00:54 molto_nuvoloso Molto Nuvoloso 21 21 100 1018 13 N 0
Ieri h: 23:54 foschia Foschia 21 21 100 1019 8 N 0
Ieri h: 22:54 coperto Coperto 22 20 88 1019 10 N 0
Ieri h: 21:54 sereno Sereno 20 20 100 1019 14 N 0
Ieri h: 20:54 sereno Sereno 21 20 94 1019 10 N 0
Ieri h: 19:54 sereno Sereno 22 20 88 1018 14 N 0
Ieri h: 18:54 poco_nuvoloso Poco Nuvoloso 24 19 73 1019 10 N 0
Ieri h: 17:54 molto_nuvoloso Molto Nuvoloso 24 19 73 1019 10 N 0
Ieri h: 16:54 molto_nuvoloso Molto Nuvoloso 24 20 78 1020 10 N 0